DAL176 KSFO-KLAX

Flight info

Callsign DAL176
Flight time 0h 55m
Altitude 39000
Route WESLA5 SUSEY EBAYE BURGL IRNMN2
Aircraft A359/H-SDE2E3GHIJ3J4J5LM1ORWXY/LB1D1

Departure

Time 2026-04-25 06:44
Airport San Francisco International Airport (KSFO)

Arrival

Time 2026-04-25 07:40
Airport Los Angeles International Airport (KLAX)
Time Latitude Longitude Altitude Speed Heading
2026-04-25 05:55 37.61288 -122.38858 24 ft 0 kts 296°
2026-04-25 06:20 37.61285 -122.38849 24 ft 4 kts 297°
2026-04-25 06:20 37.61275 -122.38819 26 ft 4 kts 287°
2026-04-25 06:21 37.61270 -122.38787 25 ft 4 kts 256°
2026-04-25 06:21 37.61283 -122.38761 26 ft 4 kts 214°
2026-04-25 06:21 37.61297 -122.38750 28 ft 0 kts 207°
2026-04-25 06:21 37.61296 -122.38751 25 ft 0 kts 207°
2026-04-25 06:29 37.61294 -122.38752 25 ft 0 kts 208°
2026-04-25 06:30 37.61276 -122.38758 30 ft 6 kts 194°
2026-04-25 06:30 37.61211 -122.38780 28 ft 12 kts 201°
2026-04-25 06:30 37.61131 -122.38827 26 ft 14 kts 207°
2026-04-25 06:30 37.61047 -122.38880 27 ft 9 kts 206°
2026-04-25 06:31 37.61000 -122.38909 26 ft 8 kts 205°
2026-04-25 06:31 37.60957 -122.38907 24 ft 7 kts 157°
2026-04-25 06:31 37.60925 -122.38859 24 ft 8 kts 122°
2026-04-25 06:31 37.60890 -122.38782 25 ft 11 kts 117°
2026-04-25 06:32 37.60849 -122.38678 22 ft 15 kts 117°
2026-04-25 06:32 37.60799 -122.38553 23 ft 12 kts 117°
2026-04-25 06:32 37.60748 -122.38507 25 ft 9 kts 161°
2026-04-25 06:32 37.60689 -122.38482 26 ft 9 kts 147°
2026-04-25 06:33 37.60639 -122.38423 28 ft 11 kts 132°
2026-04-25 06:33 37.60580 -122.38335 26 ft 14 kts 130°
2026-04-25 06:33 37.60518 -122.38227 28 ft 16 kts 118°
2026-04-25 06:33 37.60511 -122.38084 27 ft 17 kts 82°
2026-04-25 06:34 37.60563 -122.37960 28 ft 15 kts 30°
2026-04-25 06:34 37.60666 -122.37890 27 ft 19 kts 27°
2026-04-25 06:34 37.60822 -122.37787 28 ft 28 kts 27°
2026-04-25 06:34 37.61008 -122.37665 27 ft 32 kts 27°
2026-04-25 06:35 37.61210 -122.37532 28 ft 34 kts 27°
2026-04-25 06:35 37.61387 -122.37414 27 ft 22 kts 27°
2026-04-25 06:35 37.61517 -122.37310 28 ft 23 kts 47°
2026-04-25 06:35 37.61553 -122.37121 28 ft 24 kts 106°
2026-04-25 06:36 37.61474 -122.36941 28 ft 23 kts 129°
2026-04-25 06:36 37.61363 -122.36767 25 ft 27 kts 123°
2026-04-25 06:36 37.61269 -122.36548 23 ft 30 kts 117°
2026-04-25 06:36 37.61168 -122.36306 26 ft 32 kts 117°
2026-04-25 06:37 37.61111 -122.36168 23 ft 11 kts 117°
2026-04-25 06:37 37.61096 -122.36133 24 ft 0 kts 118°
2026-04-25 06:38 37.61095 -122.36130 24 ft 4 kts 118°
2026-04-25 06:39 37.61089 -122.36116 25 ft 2 kts 118°
2026-04-25 06:39 37.61077 -122.36088 27 ft 6 kts 118°
2026-04-25 06:39 37.61063 -122.36053 25 ft 8 kts 111°
2026-04-25 06:39 37.61056 -122.36004 25 ft 0 kts 92°
2026-04-25 06:41 37.61061 -122.35970 29 ft 6 kts 75°
2026-04-25 06:41 37.61099 -122.35912 28 ft 11 kts 37°
2026-04-25 06:41 37.61179 -122.35884 30 ft 11 kts 352°
2026-04-25 06:42 37.61197 -122.35906 24 ft 0 kts 295°
2026-04-25 06:43 37.61318 -122.36194 24 ft 80 kts 298°
2026-04-25 06:43 37.61696 -122.37101 28 ft 151 kts 297°
2026-04-25 06:44 37.62217 -122.38365 574 ft 169 kts 297°
2026-04-25 06:44 37.62751 -122.39666 1474 ft 166 kts 298°
2026-04-25 06:44 37.63331 -122.40994 1838 ft 189 kts 298°
2026-04-25 06:44 37.64015 -122.42547 2134 ft 215 kts 299°
2026-04-25 06:45 37.64611 -122.44335 2690 ft 227 kts 282°
2026-04-25 06:45 37.64419 -122.46304 3366 ft 234 kts 244°
2026-04-25 06:45 37.63261 -122.47790 3865 ft 252 kts 207°
2026-04-25 06:45 37.61505 -122.48196 4400 ft 264 kts 179°
2026-04-25 06:46 37.59653 -122.48049 5112 ft 269 kts 176°
2026-04-25 06:46 37.57783 -122.47889 5874 ft 270 kts 177°
2026-04-25 06:46 37.55900 -122.47764 6590 ft 273 kts 178°
2026-04-25 06:46 37.53986 -122.47667 7292 ft 276 kts 178°
2026-04-25 06:47 37.52054 -122.47570 7984 ft 279 kts 176°
2026-04-25 06:47 37.50129 -122.47169 8665 ft 282 kts 164°
2026-04-25 06:47 37.48333 -122.46161 9317 ft 286 kts 148°
2026-04-25 06:47 37.46794 -122.44563 9967 ft 289 kts 135°
2026-04-25 06:48 37.45394 -122.42682 10406 ft 302 kts 133°
2026-04-25 06:48 37.43944 -122.40672 10651 ft 319 kts 133°
2026-04-25 06:48 37.42415 -122.38561 10924 ft 334 kts 133°
2026-04-25 06:48 37.40825 -122.36383 11396 ft 341 kts 133°
2026-04-25 06:49 37.39213 -122.34183 11956 ft 344 kts 133°
2026-04-25 06:49 37.37579 -122.31958 12540 ft 347 kts 133°
2026-04-25 06:49 37.35933 -122.29721 13107 ft 350 kts 133°
2026-04-25 06:49 37.34267 -122.27460 13655 ft 354 kts 133°
2026-04-25 06:50 37.32588 -122.25184 14195 ft 357 kts 133°
2026-04-25 06:50 37.30892 -122.22886 14735 ft 360 kts 133°
2026-04-25 06:50 37.29182 -122.20570 15275 ft 363 kts 133°
2026-04-25 06:50 37.27453 -122.18232 15796 ft 367 kts 134°
2026-04-25 06:51 37.25711 -122.15878 16311 ft 370 kts 134°
2026-04-25 06:51 37.23955 -122.13505 16814 ft 373 kts 134°
2026-04-25 06:51 37.22178 -122.11107 17296 ft 376 kts 134°
2026-04-25 06:51 37.20390 -122.08697 17785 ft 379 kts 134°
2026-04-25 06:52 37.18581 -122.06261 18254 ft 383 kts 134°
2026-04-25 06:52 37.16788 -122.03849 18701 ft 386 kts 134°
2026-04-25 06:52 37.14971 -122.01403 19131 ft 390 kts 134°
2026-04-25 06:52 37.13114 -121.98905 19565 ft 393 kts 135°
2026-04-25 06:53 37.11236 -121.96382 19956 ft 398 kts 135°
2026-04-25 06:53 37.09340 -121.93836 20355 ft 402 kts 135°
2026-04-25 06:53 37.07427 -121.91270 20751 ft 405 kts 135°
2026-04-25 06:53 37.05493 -121.88681 21138 ft 409 kts 136°
2026-04-25 06:54 37.03543 -121.86068 21517 ft 412 kts 136°
2026-04-25 06:54 37.01576 -121.83437 21866 ft 416 kts 136°
2026-04-25 06:54 36.99588 -121.80780 22216 ft 419 kts 136°
2026-04-25 06:54 36.97588 -121.78109 22595 ft 422 kts 136°
2026-04-25 06:55 36.95570 -121.75415 22939 ft 425 kts 137°
2026-04-25 06:55 36.93539 -121.72707 23249 ft 429 kts 137°
2026-04-25 06:55 36.91488 -121.69975 23578 ft 432 kts 137°
2026-04-25 06:55 36.89425 -121.67228 23911 ft 435 kts 137°
2026-04-25 06:56 36.87345 -121.64462 24261 ft 438 kts 137°
2026-04-25 06:56 36.85266 -121.61668 24547 ft 441 kts 133°
2026-04-25 06:56 36.83181 -121.58833 24801 ft 445 kts 138°
2026-04-25 06:56 36.81046 -121.56030 25191 ft 446 kts 138°
2026-04-25 06:57 36.78903 -121.53217 25529 ft 449 kts 138°
2026-04-25 06:57 36.76750 -121.50382 25867 ft 452 kts 138°
2026-04-25 06:57 36.74607 -121.47558 26220 ft 454 kts 139°
2026-04-25 06:57 36.72402 -121.44650 26557 ft 457 kts 139°
2026-04-25 06:58 36.70240 -121.41791 26875 ft 461 kts 138°
2026-04-25 06:58 36.68039 -121.38880 27263 ft 462 kts 139°
2026-04-25 06:58 36.65814 -121.35953 27648 ft 465 kts 139°
2026-04-25 06:58 36.63582 -121.33020 27985 ft 469 kts 139°
2026-04-25 06:59 36.61332 -121.30061 28392 ft 472 kts 139°
2026-04-25 06:59 36.59071 -121.27086 28789 ft 474 kts 139°
2026-04-25 06:59 36.56795 -121.24105 29152 ft 478 kts 139°
2026-04-25 06:59 36.54503 -121.21095 29529 ft 481 kts 139°
2026-04-25 07:00 36.52194 -121.18061 29917 ft 484 kts 139°
2026-04-25 07:00 36.49875 -121.15018 30307 ft 487 kts 139°
2026-04-25 07:00 36.47536 -121.11953 30696 ft 490 kts 140°
2026-04-25 07:00 36.45182 -121.08873 31083 ft 493 kts 139°
2026-04-25 07:01 36.42809 -121.05774 31429 ft 497 kts 140°
2026-04-25 07:01 36.40456 -121.02596 31797 ft 502 kts 137°
2026-04-25 07:01 36.38159 -120.99307 32144 ft 506 kts 136°
2026-04-25 07:01 36.35877 -120.95960 32510 ft 509 kts 136°
2026-04-25 07:02 36.33586 -120.92587 32849 ft 513 kts 136°
2026-04-25 07:02 36.31271 -120.89200 33177 ft 516 kts 136°
2026-04-25 07:02 36.28935 -120.85810 33480 ft 519 kts 136°
2026-04-25 07:02 36.26575 -120.82407 33809 ft 522 kts 136°
2026-04-25 07:03 36.24200 -120.78994 34124 ft 525 kts 136°
2026-04-25 07:03 36.21802 -120.75566 34432 ft 527 kts 136°
2026-04-25 07:03 36.19393 -120.72130 34752 ft 529 kts 137°
2026-04-25 07:03 36.16977 -120.68692 35117 ft 529 kts 137°
2026-04-25 07:04 36.14567 -120.65260 35577 ft 528 kts 137°
2026-04-25 07:04 36.12164 -120.61837 36008 ft 526 kts 137°
2026-04-25 07:04 36.09759 -120.58413 36367 ft 527 kts 137°
2026-04-25 07:04 36.07379 -120.55031 36644 ft 529 kts 138°
2026-04-25 07:05 36.04967 -120.51614 37039 ft 527 kts 138°
2026-04-25 07:05 36.02559 -120.48205 37462 ft 525 kts 138°
2026-04-25 07:05 36.00174 -120.44828 37930 ft 521 kts 138°
2026-04-25 07:05 35.97795 -120.41463 38335 ft 518 kts 139°
2026-04-25 07:06 35.95420 -120.38109 38672 ft 518 kts 139°
2026-04-25 07:06 35.93046 -120.34762 38932 ft 520 kts 139°
2026-04-25 07:06 35.90655 -120.31395 38976 ft 522 kts 139°
2026-04-25 07:07 35.85507 -120.25254 38983 ft 506 kts 153°
2026-04-25 07:07 35.79633 -120.20604 38982 ft 501 kts 158°
2026-04-25 07:08 35.73677 -120.16106 38982 ft 501 kts 158°
2026-04-25 07:08 35.67737 -120.11629 39003 ft 500 kts 158°
2026-04-25 07:09 35.61793 -120.07160 39001 ft 501 kts 158°
2026-04-25 07:09 35.55858 -120.02679 38991 ft 501 kts 158°
2026-04-25 07:10 35.49924 -119.98209 38984 ft 501 kts 158°
2026-04-25 07:10 35.43982 -119.93742 38978 ft 500 kts 158°
2026-04-25 07:10 35.41116 -119.91589 38875 ft 494 kts 158°
2026-04-25 07:11 35.38198 -119.89395 38281 ft 492 kts 158°
2026-04-25 07:11 35.35264 -119.87201 37522 ft 495 kts 158°
2026-04-25 07:11 35.32325 -119.85005 36833 ft 495 kts 158°
2026-04-25 07:11 35.29434 -119.82808 36127 ft 498 kts 155°
2026-04-25 07:12 35.26566 -119.80286 35407 ft 503 kts 152°
2026-04-25 07:12 35.20982 -119.75062 33826 ft 508 kts 150°
2026-04-25 07:12 35.18171 -119.72429 32950 ft 510 kts 150°
2026-04-25 07:13 35.15350 -119.69789 32267 ft 508 kts 150°
2026-04-25 07:13 35.12592 -119.67210 31682 ft 504 kts 150°
2026-04-25 07:13 35.09819 -119.64621 31087 ft 500 kts 150°
2026-04-25 07:13 35.07064 -119.62054 30471 ft 496 kts 150°
2026-04-25 07:14 35.04330 -119.59512 29854 ft 492 kts 149°
2026-04-25 07:14 35.01608 -119.56984 29250 ft 488 kts 149°
2026-04-25 07:14 34.98919 -119.54488 28650 ft 484 kts 149°
2026-04-25 07:14 34.96251 -119.52013 28036 ft 481 kts 149°
2026-04-25 07:15 34.93598 -119.49550 27433 ft 477 kts 149°
2026-04-25 07:15 34.90970 -119.47118 26860 ft 473 kts 149°
2026-04-25 07:15 34.88339 -119.44738 26278 ft 468 kts 150°
2026-04-25 07:15 34.85724 -119.42407 25709 ft 463 kts 150°
2026-04-25 07:16 34.83128 -119.40097 25137 ft 460 kts 150°
2026-04-25 07:16 34.80560 -119.37808 24651 ft 453 kts 149°
2026-04-25 07:16 34.78061 -119.35575 24522 ft 438 kts 149°
2026-04-25 07:16 34.75642 -119.33420 24390 ft 424 kts 150°
2026-04-25 07:17 34.73266 -119.31315 23851 ft 421 kts 150°
2026-04-25 07:17 34.70920 -119.29269 23320 ft 419 kts 150°
2026-04-25 07:17 34.68557 -119.27210 22799 ft 416 kts 150°
2026-04-25 07:17 34.66185 -119.25141 22287 ft 412 kts 150°
2026-04-25 07:18 34.63896 -119.23147 21786 ft 409 kts 150°
2026-04-25 07:18 34.61592 -119.21157 21280 ft 404 kts 150°
2026-04-25 07:18 34.59304 -119.19194 20771 ft 401 kts 150°
2026-04-25 07:18 34.57035 -119.17242 20276 ft 397 kts 150°
2026-04-25 07:19 34.54796 -119.15300 19781 ft 394 kts 149°
2026-04-25 07:19 34.52591 -119.13342 19289 ft 392 kts 149°
2026-04-25 07:19 34.50402 -119.11395 18796 ft 389 kts 149°
2026-04-25 07:19 34.48231 -119.09467 18432 ft 381 kts 149°
2026-04-25 07:20 34.46162 -119.07625 18124 ft 358 kts 149°
2026-04-25 07:20 34.44211 -119.05893 17831 ft 337 kts 150°
2026-04-25 07:20 34.42363 -119.04275 17545 ft 319 kts 150°
2026-04-25 07:20 34.40589 -119.02740 17043 ft 309 kts 150°
2026-04-25 07:21 34.38848 -119.01241 16426 ft 305 kts 150°
2026-04-25 07:21 34.37142 -118.99770 15877 ft 298 kts 150°
2026-04-25 07:21 34.35427 -118.98295 15515 ft 313 kts 150°
2026-04-25 07:21 34.33576 -118.96712 15446 ft 331 kts 149°
2026-04-25 07:22 34.31731 -118.95063 14903 ft 332 kts 148°
2026-04-25 07:22 34.29862 -118.93349 14172 ft 340 kts 147°
2026-04-25 07:22 34.27974 -118.91618 13677 ft 339 kts 147°
2026-04-25 07:22 34.26095 -118.89902 13262 ft 336 kts 147°
2026-04-25 07:23 34.24263 -118.88231 13125 ft 323 kts 147°
2026-04-25 07:23 34.22519 -118.86619 13011 ft 310 kts 147°
2026-04-25 07:23 34.20861 -118.85086 12895 ft 298 kts 147°
2026-04-25 07:23 34.19244 -118.83595 12766 ft 287 kts 147°
2026-04-25 07:24 34.17687 -118.82162 12609 ft 277 kts 148°
2026-04-25 07:24 34.16177 -118.80776 12187 ft 270 kts 147°
2026-04-25 07:24 34.14753 -118.79311 11696 ft 266 kts 142°
2026-04-25 07:24 34.13402 -118.77798 11397 ft 264 kts 141°
2026-04-25 07:25 34.12054 -118.76296 11136 ft 263 kts 141°
2026-04-25 07:25 34.11165 -118.75312 10971 ft 262 kts 141°
2026-04-25 07:25 34.09826 -118.73838 10722 ft 260 kts 141°
2026-04-25 07:25 34.08039 -118.71885 10388 ft 257 kts 141°
2026-04-25 07:26 34.07155 -118.70931 10245 ft 258 kts 140°
2026-04-25 07:26 34.05824 -118.69502 9945 ft 255 kts 141°
2026-04-25 07:26 34.04510 -118.68069 9622 ft 255 kts 139°
2026-04-25 07:26 34.03367 -118.66436 9344 ft 255 kts 122°
2026-04-25 07:27 34.02767 -118.64434 9071 ft 255 kts 100°
2026-04-25 07:27 34.02529 -118.62316 8815 ft 254 kts 96°
2026-04-25 07:27 34.02351 -118.60244 8547 ft 243 kts 96°
2026-04-25 07:27 34.02179 -118.58247 8255 ft 238 kts 96°
2026-04-25 07:28 34.02002 -118.56269 8109 ft 235 kts 96°
2026-04-25 07:28 34.01828 -118.54386 7990 ft 218 kts 97°
2026-04-25 07:28 34.01662 -118.52598 7872 ft 213 kts 96°
2026-04-25 07:28 34.01497 -118.50841 7752 ft 212 kts 96°
2026-04-25 07:29 34.01333 -118.49081 7562 ft 211 kts 96°
2026-04-25 07:29 34.01169 -118.47324 7342 ft 210 kts 96°
2026-04-25 07:29 34.01101 -118.45568 7122 ft 210 kts 85°
2026-04-25 07:29 34.01321 -118.43841 6928 ft 208 kts 78°
2026-04-25 07:30 34.01613 -118.42140 6714 ft 207 kts 78°
2026-04-25 07:30 34.01914 -118.40443 6513 ft 206 kts 78°
2026-04-25 07:30 34.02210 -118.38757 6312 ft 205 kts 78°
2026-04-25 07:30 34.02502 -118.37082 6104 ft 204 kts 78°
2026-04-25 07:31 34.02791 -118.35412 5922 ft 202 kts 78°
2026-04-25 07:31 34.03005 -118.33703 5932 ft 215 kts 83°
2026-04-25 07:31 34.03174 -118.31828 5916 ft 232 kts 84°
2026-04-25 07:31 34.03118 -118.29879 5904 ft 235 kts 104°
2026-04-25 07:32 34.02449 -118.28099 5791 ft 233 kts 122°
2026-04-25 07:32 34.01570 -118.26459 5441 ft 232 kts 124°
2026-04-25 07:32 34.00673 -118.24851 5132 ft 231 kts 124°
2026-04-25 07:32 33.99784 -118.23240 4858 ft 230 kts 124°
2026-04-25 07:33 33.98906 -118.21632 4586 ft 229 kts 123°
2026-04-25 07:33 33.98036 -118.20028 4314 ft 228 kts 123°
2026-04-25 07:33 33.97169 -118.18428 4073 ft 228 kts 123°
2026-04-25 07:33 33.96320 -118.16857 3977 ft 227 kts 123°
2026-04-25 07:34 33.95284 -118.15415 3969 ft 226 kts 144°
2026-04-25 07:34 33.93838 -118.14773 3972 ft 223 kts 178°
2026-04-25 07:34 33.92375 -118.15215 3975 ft 220 kts 212°
2026-04-25 07:34 33.91389 -118.16500 3974 ft 205 kts 245°
2026-04-25 07:35 33.91116 -118.18086 3980 ft 186 kts 274°
2026-04-25 07:35 33.91432 -118.19506 4000 ft 169 kts 294°
2026-04-25 07:35 33.91956 -118.20761 3989 ft 168 kts 298°
2026-04-25 07:35 33.92500 -118.21983 3987 ft 158 kts 298°
2026-04-25 07:36 33.92997 -118.23102 3868 ft 149 kts 297°
2026-04-25 07:36 33.93485 -118.24215 3583 ft 149 kts 297°
2026-04-25 07:36 33.93966 -118.25321 3244 ft 149 kts 297°
2026-04-25 07:36 33.94447 -118.26433 2862 ft 150 kts 297°
2026-04-25 07:37 33.94739 -118.27629 2485 ft 149 kts 279°
2026-04-25 07:37 33.94718 -118.28857 2142 ft 146 kts 258°
2026-04-25 07:37 33.94553 -118.30062 1976 ft 147 kts 262°
2026-04-25 07:37 33.94432 -118.31290 1629 ft 148 kts 262°
2026-04-25 07:38 33.94330 -118.32516 1265 ft 146 kts 263°
2026-04-25 07:38 33.94208 -118.33726 912 ft 144 kts 263°
2026-04-25 07:38 33.94089 -118.34907 645 ft 141 kts 261°
2026-04-25 07:38 33.93955 -118.36084 534 ft 143 kts 261°
2026-04-25 07:39 33.93836 -118.37269 327 ft 141 kts 262°
2026-04-25 07:39 33.93724 -118.38450 168 ft 144 kts 262°
2026-04-25 07:39 33.93621 -118.39427 124 ft 60 kts 263°
2026-04-25 07:39 33.93607 -118.39785 132 ft 51 kts 279°
2026-04-25 07:40 33.93655 -118.40025 132 ft 33 kts 265°
2026-04-25 07:40 33.93639 -118.40246 127 ft 23 kts 264°
2026-04-25 07:40 33.93676 -118.40383 132 ft 13 kts 308°
2026-04-25 07:40 33.93757 -118.40421 132 ft 13 kts 349°
2026-04-25 07:41 33.93764 -118.40422 132 ft 0 kts 349°
2026-04-25 07:41 33.93767 -118.40423 130 ft 3 kts 349°
2026-04-25 07:41 33.93775 -118.40426 132 ft 0 kts 345°
2026-04-25 07:41 33.93783 -118.40428 132 ft 2 kts 345°
2026-04-25 07:42 33.93793 -118.40433 132 ft 6 kts 338°
2026-04-25 07:42 33.93816 -118.40465 130 ft 17 kts 296°
2026-04-25 07:42 33.93813 -118.40633 122 ft 21 kts 262°
2026-04-25 07:42 33.93846 -118.40732 127 ft 9 kts 318°
2026-04-25 07:43 33.93875 -118.40825 132 ft 18 kts 265°
2026-04-25 07:43 33.93858 -118.40994 132 ft 22 kts 263°
2026-04-25 07:43 33.93839 -118.41181 129 ft 23 kts 262°
2026-04-25 07:43 33.93818 -118.41391 127 ft 24 kts 267°
2026-04-25 07:44 33.93890 -118.41470 132 ft 5 kts
2026-04-25 07:44 33.93907 -118.41450 122 ft 2 kts 76°
2026-04-25 07:44 33.93909 -118.41428 128 ft 4 kts 84°
2026-04-25 07:44 33.93912 -118.41387 127 ft 0 kts 85°